FW0832 Weather Reports


time (UTC)temp
C
wind
direction
speed
KPH
gust
KPH
rain 1hr
cm
rain 24hr
cm
rain mn
cm
humidity
%
barometer
mb
20260502123022 3 218 3.2 8.0 0.00 0.00 0.00 74 1020.9
20260502121519 2 200 8.0 12.9 0.00 0.00 0.00 75 1020.9
20260502114516 1 198 4.8 8.0 0.00 0.00 0.00 75 1021.0
20260502113015 1 196 4.8 9.7 0.00 0.00 0.00 75 1021.0
20260502111514 2 205 6.4 11.3 0.00 0.00 0.00 75 1021.1
20260502110012 2 211 9.7 12.9 0.00 0.00 0.00 75 1021.1
20260502104515 2 212 8.0 16.1 0.00 0.00 0.00 75 1021.2
20260502103014 2 214 11.3 17.7 0.00 0.00 0.00 75 1021.3
20260502101529 2 213 11.3 14.5 0.00 0.00 0.00 77 1021.4
20260502091506 1 206 6.4 11.3 0.00 0.00 0.00 79 1021.6
20260502080108 1 205 8.0 11.3 0.00 0.00 0.00 81 1021.6
20260502070100 1 216 6.4 9.7 0.00 0.00 0.00 81 1022.0
20260502064552 0 174 6.4 8.0 0.00 0.00 0.00 79 1022.1
20260502063057 0 173 8.0 9.7 0.00 0.00 0.00 78 1022.1
20260502061545 0 157 3.2 8.0 0.00 0.00 0.00 77 1022.1
20260502060044 1 118 0.0 3.2 0.00 0.00 0.00 78 1022.2
20260502054543 1 118 3.2 4.8 0.00 0.00 0.00 78 1022.3
20260502053043 1 117 3.2 4.8 0.00 0.00 0.00 76 1022.4
20260502051553 1 117 1.6 3.2 0.00 0.00 0.00 76 1022.4
20260502050036 1 117 0.0 3.2 0.00 0.00 0.00 74 1022.5
20260502044534 1 117 0.0 1.6 0.00 0.00 0.00 74 1022.3
20260502043034 1 117 1.6 3.2 0.00 0.00 0.00 73 1022.4
20260502041535 2 117 3.2 6.4 0.00 0.00 0.00 73 1022.3
20260502040040 2 92 4.8 6.4 0.00 0.00 0.00 70 1022.4
20260502034533 3 76 0.0 3.2 0.00 0.00 0.00 65 1022.6
20260502033031 5 76 0.0 6.4 0.00 0.00 0.00 61 1022.6
20260502031531 5 76 6.4 9.7 0.00 0.00 0.00 60 1022.3
20260502030033 7 360 1.6 4.8 0.00 0.00 0.00 57 1022.1
20260502024535 7 360 1.6 4.8 0.00 0.00 0.00 55 1021.9
20260502023030 7 360 1.6 4.8 0.00 0.00 0.00 54 1021.8
20260502021529 8 5 3.2 9.7 0.00 0.00 0.00 51 1021.6
20260502020035 8 5 3.2 12.9 0.00 0.00 0.00 52 1021.6
20260502014528 8 21 4.8 14.5 0.00 0.00 0.00 49 1021.6
20260502013042 9 345 3.2 9.7 0.00 0.00 0.00 47 1021.5
20260502011527 10 351 4.8 12.9 0.00 0.00 0.00 46 1021.6
20260502010027 10 347 6.4 14.5 0.00 0.00 0.00 43 1021.6
20260502004525 10 336 8.0 19.3 0.00 0.10 0.00 43 1021.5
20260502003026 11 355 4.8 14.5 0.00 0.10 0.00 46 1021.4
20260502001523 11 348 6.4 16.1 0.00 0.10 0.00 42 1021.3
20260502000022 11 9 4.8 14.5 0.00 0.10 0.00 44 1021.2
20260501234521 11 336 6.4 16.1 0.00 0.10 0.00 45 1021.3
20260501233122 12 338 4.8 20.9 0.00 0.10 0.00 43 1021.1
20260501231519 12 355 6.4 14.5 0.00 0.10 0.00 45 1021.1
20260501230018 12 5 6.4 17.7 0.00 0.10 0.00 44 1021.2
20260501224524 12 321 4.8 14.5 0.00 0.10 0.00 45 1021.4
20260501223017 12 25 9.7 19.3 0.00 0.10 0.00 43 1021.4
20260501221516 11 13 8.0 17.7 0.00 0.10 0.00 46 1021.5
20260501220030 11 355 6.4 14.5 0.00 0.10 0.00 45 1021.5
20260501214515 12 355 4.8 16.1 0.00 0.10 0.00 43 1021.5
20260501213013 12 5 8.0 17.7 0.00 0.10 0.00 44 1021.6
20260501211511 12 20 8.0 14.5 0.00 0.10 0.00 46 1021.6
20260501210014 11 17 4.8 17.7 0.00 0.10 0.00 45 1021.9
20260501204509 11 360 8.0 16.1 0.00 0.10 0.00 46 1022.0
20260501203009 11 27 6.4 16.1 0.00 0.10 0.00 50 1022.0
20260501201506 11 335 4.8 20.9 0.00 0.10 0.00 48 1022.2
20260501200105 11 5 8.0 16.1 0.00 0.10 0.00 51 1022.0
20260501194505 11 15 9.7 17.7 0.00 0.10 0.00 48 1022.1
20260501193003 11 57 6.4 19.3 0.00 0.10 0.00 51 1022.2
20260501191605 10 351 6.4 14.5 0.00 0.10 0.00 52 1022.2
20260501190104 10 333 6.4 17.7 0.00 0.10 0.00 53 1022.3
20260501184553 10 323 8.0 19.3 0.00 0.10 0.00 57 1022.4
20260501183100 8 338 6.4 16.1 0.00 0.10 0.00 58 1022.4
20260501181603 8 327 6.4 16.1 0.00 0.10 0.00 55 1022.5
20260501180048 8 27 9.7 19.3 0.00 0.10 0.00 57 1022.5
20260501174546 8 296 9.7 16.1 0.00 0.10 0.00 57 1022.7
20260501173048 8 321 8.0 19.3 0.00 0.10 0.00 59 1022.7
20260501171542 8 342 11.3 17.7 0.00 0.10 0.00 58 1022.8
20260501170049 8 5 6.4 17.7 0.00 0.10 0.00 59 1022.8
20260501164545 7 18 6.4 20.9 0.00 0.10 0.00 57 1022.8
20260501163044 7 13 8.0 20.9 0.00 0.10 0.00 58 1022.7
20260501161533 7 5 8.0 19.3 0.00 0.10 0.00 60 1022.9
20260501160047 6 31 8.0 19.3 0.00 0.10 0.00 63 1022.9
20260501154526 6 297 9.7 19.3 0.00 0.10 0.00 62 1022.9
20260501153028 6 346 6.4 17.7 0.00 0.10 0.00 63 1022.9
20260501151521 5 26 8.0 19.3 0.00 0.10 0.00 64 1022.9
20260501150018 5 45 8.0 17.7 0.00 0.10 0.00 64 1022.8
20260501144520 5 5 8.0 19.3 0.00 0.10 0.00 66 1022.9
20260501143014 5 9 8.0 20.9 0.00 0.10 0.00 67 1022.8
20260501141515 4 12 8.0 19.3 0.00 0.10 0.00 69 1022.8
20260501140011 3 355 6.4 16.1 0.00 0.10 0.00 71 1022.8